[[{"header":{"parameterUnit":"m.s-1","parameterCategory":1,"la1":30.2991,"la2":30.254,"lo1":-89.0895,"lo2":-89.0444,"dy":0.0017,"dx":0.0017,"nx":28,"ny":28,"refTime":"2024-10-13T03:00:00:Z","depth":0,"parameterNumber":2,"parameterNumberName":"U-component_of_WINDS"},"data":[0,0,0,0,0,0,0,0,0,0,0,0,0,0,0,0,0,0,0,0,0,0,0,0,0,0,0,0,0,0,0,0,0,0,0,0,0,0,0,0,0,0,0,0,0,0,0,0,0,0,0,0,0,0,0,0,0,0,3.6127,3.6129,0,3.6292,3.6294,3.6296,3.6256,3.6253,3.6249,3.6246,3.6418,3.6425,3.6432,0,0,0,0,0,0,0,0,0,0,0,0,0,3.5783,3.5789,3.6127,3.6129,3.6131,3.6292,3.6294,3.6296,3.6256,3.6253,3.6249,3.6245,3.6415,3.6424,3.6433,0,0,0,0,0,0,0,0,0,0,0,0,0,3.5939,3.5792,3.6127,3.6131,3.6133,3.6291,3.6294,3.6297,3.6257,3.6252,3.6248,3.6243,3.6412,3.6423,3.6434,3.66,0,0,3.6469,3.6474,0,0,0,0,0,0,0,0,3.593,3.5951,3.6128,3.6131,3.6133,3.6248,3.6235,3.6399,3.6258,3.621,3.6246,3.6241,3.6365,3.638,3.6422,3.6608,3.6615,3.647,3.6477,3.6481,3.6485,0,0,0,0,0,0,0,3.5919,3.5944,3.6192,3.6131,3.6134,3.6126,3.6143,3.6266,3.6313,3.6214,3.6211,3.6231,3.6366,3.6411,3.6425,3.6618,3.6469,3.6479,3.6486,3.6491,3.6952,3.6957,0,0,0,0,0,0,3.5906,3.5935,3.6187,3.6197,3.6018,3.6136,3.6155,3.6216,3.6311,3.6321,3.6235,3.6229,3.6394,3.6412,3.6431,3.6633,3.6481,3.6492,3.6498,3.6947,3.6953,3.6959,0,0,0,0,0,0,3.5898,3.5929,3.6181,3.6066,3.6097,3.6147,3.6217,3.6222,3.6267,3.6327,3.6336,3.6272,3.6391,3.6415,3.6559,3.6639,3.6497,3.6507,3.694,3.6949,3.6956,3.7038,0,0,0,0,0,0,3.5889,3.5926,3.5988,3.6067,3.6104,3.6304,3.6221,3.6229,3.6286,3.628,3.6364,3.6374,3.6389,3.6542,3.657,3.6652,3.6516,3.6933,3.6944,3.6954,3.7028,3.7048,3.7064,0,0,0,0,0,3.5877,3.6004,3.5991,3.6022,3.6182,3.6309,3.6329,3.6344,3.6293,3.6357,3.6396,3.6371,3.6626,3.6557,3.6588,3.6674,3.6928,3.6941,3.6953,3.702,3.7044,3.7064,0,0,0,0,0,0,3.5932,3.6014,3.6001,3.6158,3.6227,3.6302,3.6382,3.6368,3.6453,3.6443,3.6458,3.6478,3.6625,3.6664,3.6586,3.6842,3.677,3.6789,3.681,3.6834,3.6851,3.6839,3.6525,0,0,0,0,0,3.5963,3.6058,3.6125,3.6257,3.6292,3.6332,3.6387,3.6393,3.6465,3.6494,3.6543,3.6615,3.6712,3.6775,3.6867,3.7034,3.7053,3.7109,3.7127,3.7142,3.7158,3.7253,3.7279,3.7,3.7,3.6999,0,0,3.6027,3.6084,3.6142,3.627,3.6324,3.6424,3.6356,3.6464,3.6539,3.651,3.6649,3.6689,3.677,3.6927,3.6999,3.6965,3.724,3.7158,3.7169,3.7177,3.7268,3.7295,3.7318,3.7008,3.7007,3.7005,0,0,3.6194,3.6246,3.6363,3.6419,3.6502,3.6528,3.6557,3.6635,3.666,3.68,3.6782,3.6872,3.7037,3.7097,3.7149,3.7344,3.7325,3.7374,3.7469,3.7561,3.7583,3.7602,3.7673,3.7699,3.739,3.739,3.7391,0,3.6263,3.6412,3.6425,3.6536,3.6594,3.6573,3.6693,3.6747,3.6857,3.6898,3.6858,3.7067,3.712,3.7292,3.7341,3.7383,3.7417,3.7364,3.7578,3.7598,3.7616,3.7685,3.7711,3.7396,3.7395,3.7395,3.7394,0,3.6494,3.6598,3.6683,3.6789,3.6856,3.6971,3.7004,3.7071,3.7072,3.7103,3.7247,3.7311,3.7417,3.7459,3.746,3.7633,3.7609,3.7574,3.7502,3.7648,3.7713,3.7739,3.7404,3.7402,3.74,3.7399,0,0,3.6698,3.6813,3.6844,3.6894,3.6986,3.7067,3.7183,3.7286,3.7344,3.7422,3.752,3.7662,3.7632,3.7691,3.7699,3.778,3.7934,3.7736,3.7738,3.7771,3.813,3.8156,3.8186,3.7922,3.7927,3.7931,3.8124,0,3.6875,3.7077,3.7094,3.7277,3.7374,3.7359,3.746,3.7529,3.7562,3.7651,3.7688,3.779,3.774,3.7776,3.7856,3.7898,3.8006,3.7885,3.8016,3.802,3.7995,3.8219,3.8246,3.8424,3.8149,3.8153,3.8156,0,3.7107,3.7192,3.7384,3.7466,3.7507,3.7598,3.7696,3.7781,3.786,3.7879,3.7947,3.7946,3.8067,3.7992,3.8161,3.8078,3.8133,3.8163,3.817,3.8182,3.8096,3.8238,3.8481,3.8508,3.8196,3.8193,3.819,0,3.7238,3.7401,3.7538,3.758,3.7678,3.7743,3.7787,3.7861,3.7924,3.801,3.8052,3.8151,3.8206,3.8285,3.8312,3.8254,3.8481,3.8406,3.8501,3.85,3.8548,3.8545,3.8804,3.8584,3.8584,3.8583,3.8583,0,3.7433,3.7552,3.7598,3.7682,3.7816,3.7837,3.7969,3.801,3.8077,3.817,3.8164,3.8252,3.8282,3.8376,3.8398,3.8536,3.8561,3.8581,3.8585,3.8581,3.8579,3.8617,3.8605,3.859,3.8589,3.8587,3.8586,0,3.7602,3.7637,3.7786,3.7868,3.7891,3.7986,3.8057,3.814,3.8173,3.8292,3.8321,3.8373,3.8484,3.8519,3.8653,3.8668,3.883,3.8823,3.8803,3.8803,3.8896,3.8887,3.9188,3.923,3.8983,3.8985,3.8987,0,3.7723,3.7815,3.7907,3.7969,3.8016,3.8116,3.818,3.8206,3.8273,3.8372,3.8444,3.8553,3.8642,3.8821,3.8872,3.8975,3.8971,3.907,3.8986,3.8981,3.8974,3.8968,3.8978,3.9085,3.9088,3.909,3.9092,0,3.7937,3.7951,3.8043,3.8143,3.822,3.83,3.8377,3.8429,3.8466,3.8543,3.8656,3.8725,3.8863,3.8973,3.9079,3.9126,3.9116,3.9118,3.9145,3.9142,3.9127,3.9137,3.8846,3.911,3.9108,3.9107,3.9106,3.9105,3.8086,3.8168,3.8246,3.8351,3.8412,3.8485,3.8567,3.8612,3.8707,3.882,3.883,3.8953,3.9034,3.9175,3.9228,3.9326,3.9298,3.9337,3.9347,3.9356,3.9364,3.9112,3.9345,3.9345,3.9344,3.9344,3.9344,0,3.83,3.8351,3.8446,3.8555,3.8638,3.8622,3.8708,3.8779,3.8887,3.8962,3.9051,3.9183,3.9291,3.9352,3.946,3.9527,3.9525,3.9554,3.955,3.9561,3.9383,3.9348,3.9554,3.9554,3.9554,3.9554,3.9554,3.9554,3.842,3.8558,3.8582,3.8752,3.8802,3.8922,3.8973,3.9041,3.9102,3.925,3.9339,3.9378,3.9449,3.9563,3.9662,3.9678,3.9718,3.9751,3.9763,3.9595,3.9573,3.9553,3.9521,3.9759,3.9759,3.9933,3.9935,3.9936]},{"header":{"parameterUnit":"m.s-1","parameterCategory":1,"la1":30.2991,"la2":30.254,"lo1":-89.0895,"lo2":-89.0444,"dy":0.0017,"dx":0.0017,"nx":28,"ny":28,"refTime":"2024-10-13T03:00:00:Z","depth":0,"parameterNumber":3,"parameterNumberName":"V-component_of_WINDS"},"data":[0,0,0,0,0,0,0,0,0,0,0,0,0,0,0,0,0,0,0,0,0,0,0,0,0,0,0,0,0,0,0,0,0,0,0,0,0,0,0,0,0,0,0,0,0,0,0,0,0,0,0,0,0,0,0,0,0,0,1.1861,1.1863,0,1.2028,1.203,1.2031,1.2081,1.208,1.2079,1.2078,1.2254,1.2259,1.2264,0,0,0,0,0,0,0,0,0,0,0,0,0,1.1587,1.1592,1.1861,1.1863,1.1865,1.2027,1.203,1.2032,1.2081,1.208,1.2079,1.2078,1.2252,1.2258,1.2265,0,0,0,0,0,0,0,0,0,0,0,0,0,1.1725,1.1594,1.186,1.1909,1.1915,1.2027,1.203,1.2033,1.2081,1.208,1.2078,1.2077,1.225,1.2258,1.2266,1.2343,0,0,1.2291,1.2294,0,0,0,0,0,0,0,0,1.1718,1.1735,1.19,1.1906,1.1912,1.2032,1.1998,1.2137,1.2081,1.2018,1.2078,1.2077,1.2181,1.2195,1.2229,1.2351,1.2359,1.2292,1.2297,1.23,1.2303,0,0,0,0,0,0,0,1.1708,1.1729,1.1927,1.1902,1.191,1.1923,1.1941,1.2024,1.2105,1.2024,1.2027,1.2046,1.2185,1.2221,1.2234,1.2361,1.2291,1.2299,1.2304,1.2307,1.2554,1.2555,0,0,0,0,0,0,1.169,1.172,1.1922,1.1932,1.181,1.1929,1.1949,1.1995,1.2104,1.212,1.2047,1.2048,1.2208,1.2224,1.224,1.2337,1.23,1.2308,1.2313,1.2552,1.2554,1.2556,0,0,0,0,0,0,1.1683,1.1707,1.1915,1.1827,1.1855,1.1935,1.1986,1.1999,1.2036,1.2122,1.2137,1.207,1.2207,1.2229,1.2316,1.2344,1.2312,1.2319,1.255,1.2553,1.2555,1.2531,0,0,0,0,0,0,1.1675,1.1705,1.1734,1.1827,1.1859,1.1987,1.1988,1.2003,1.2049,1.2052,1.2147,1.2162,1.2208,1.2304,1.2325,1.2354,1.2325,1.2548,1.2551,1.2554,1.253,1.2533,1.2535,0,0,0,0,0,1.1665,1.1722,1.1735,1.176,1.1898,1.1989,1.2007,1.2058,1.2051,1.2082,1.2137,1.2159,1.2337,1.2312,1.2336,1.2369,1.2547,1.255,1.2554,1.2529,1.2532,1.2535,0,0,0,0,0,0,1.1633,1.1736,1.1751,1.184,1.1905,1.1997,1.2038,1.206,1.2129,1.2129,1.219,1.2211,1.2294,1.2341,1.2311,1.2449,1.2443,1.2451,1.2416,1.2419,1.2422,1.2409,1.2332,0,0,0,0,0,1.1635,1.1699,1.1787,1.1856,1.1888,1.1957,1.1999,1.2031,1.2102,1.2131,1.2192,1.2261,1.2332,1.2379,1.2449,1.2537,1.2558,1.2571,1.2573,1.2575,1.2582,1.263,1.2636,1.2568,1.2567,1.2567,0,0,1.1642,1.1706,1.1744,1.1851,1.1906,1.1971,1.198,1.205,1.2099,1.2142,1.2228,1.2275,1.2356,1.2443,1.2485,1.2485,1.2605,1.2579,1.258,1.2586,1.2634,1.2641,1.2646,1.257,1.257,1.2569,0,0,1.1688,1.1743,1.1807,1.186,1.1941,1.1987,1.2001,1.209,1.2123,1.2209,1.2242,1.2302,1.2424,1.248,1.2524,1.2588,1.2611,1.261,1.2623,1.2669,1.2675,1.268,1.2702,1.2709,1.2616,1.2616,1.2616,0,1.1687,1.1786,1.1837,1.1904,1.195,1.1989,1.2054,1.2104,1.2205,1.2236,1.2234,1.2386,1.2443,1.2544,1.2559,1.2594,1.2613,1.26,1.2669,1.2675,1.2681,1.2703,1.2711,1.2616,1.2616,1.2616,1.2616,0,1.178,1.1849,1.189,1.1984,1.2035,1.2101,1.2162,1.2207,1.2235,1.2281,1.2368,1.2438,1.2522,1.2548,1.2578,1.2653,1.2649,1.2657,1.2652,1.2686,1.2707,1.2716,1.2615,1.2615,1.2615,1.2615,0,0,1.1812,1.1931,1.1945,1.1988,1.2079,1.2134,1.2201,1.2282,1.2319,1.2387,1.2445,1.2546,1.2553,1.2603,1.2639,1.2679,1.2724,1.2682,1.2685,1.2687,1.281,1.2804,1.2813,1.2739,1.2741,1.2743,1.2803,0,1.1869,1.199,1.2036,1.2134,1.2198,1.2235,1.2293,1.2356,1.24,1.246,1.2509,1.2579,1.2584,1.2614,1.2656,1.271,1.275,1.2706,1.2794,1.2797,1.2773,1.2824,1.2818,1.2872,1.2812,1.2814,1.2815,0,1.1953,1.2019,1.2123,1.2205,1.2233,1.2285,1.2362,1.2419,1.2491,1.252,1.2574,1.2606,1.2678,1.2668,1.2768,1.2737,1.2775,1.2807,1.281,1.2821,1.2808,1.2836,1.2891,1.2898,1.2829,1.2828,1.2827,0,1.1964,1.208,1.2156,1.2192,1.2289,1.2325,1.2367,1.2437,1.2482,1.255,1.2579,1.2655,1.2696,1.2754,1.2806,1.2794,1.2901,1.2895,1.2927,1.2925,1.2948,1.2946,1.301,1.2973,1.2973,1.2973,1.2972,0,1.2024,1.2086,1.2162,1.221,1.228,1.2333,1.2401,1.2447,1.2508,1.2565,1.2602,1.2655,1.272,1.2781,1.2822,1.2898,1.2917,1.2942,1.2953,1.2939,1.2936,1.2966,1.2963,1.2975,1.2974,1.2974,1.2974,0,1.2049,1.2103,1.2189,1.2273,1.2296,1.2344,1.2417,1.2464,1.2508,1.258,1.26,1.267,1.2744,1.2801,1.2897,1.2925,1.3005,1.3016,1.298,1.2985,1.3014,1.301,1.3099,1.3113,1.3066,1.3067,1.3067,0,1.2083,1.2131,1.222,1.226,1.2301,1.2366,1.2411,1.2464,1.251,1.2594,1.2631,1.2707,1.2771,1.2887,1.2947,1.302,1.3033,1.3059,1.3045,1.3029,1.3033,1.303,1.3034,1.3061,1.3062,1.3062,1.3062,0,1.2138,1.2161,1.2224,1.2297,1.2349,1.2409,1.247,1.25,1.2565,1.2614,1.2689,1.2738,1.2835,1.291,1.2989,1.3034,1.3059,1.3066,1.3077,1.3064,1.3041,1.3053,1.2985,1.3064,1.3064,1.3063,1.3063,1.3063,1.2169,1.2212,1.2281,1.235,1.24,1.2456,1.2504,1.2553,1.2616,1.2698,1.2726,1.2802,1.2872,1.298,1.3025,1.3086,1.3088,1.3104,1.3108,1.3111,1.3109,1.303,1.3101,1.3101,1.3101,1.3101,1.3101,0,1.2224,1.227,1.2332,1.2415,1.2469,1.2485,1.2553,1.2597,1.2663,1.2725,1.2786,1.2871,1.2943,1.3008,1.3083,1.3119,1.3132,1.3137,1.3135,1.3145,1.3105,1.3087,1.3125,1.3125,1.3125,1.3125,1.3125,1.3125,1.226,1.2334,1.2366,1.2466,1.2511,1.2586,1.2622,1.2674,1.2723,1.2816,1.2875,1.2916,1.2979,1.3058,1.3125,1.3142,1.3168,1.317,1.319,1.3151,1.3148,1.3145,1.3129,1.3175,1.3175,1.3225,1.3225,1.3226]}]]